Weather History for Weatherford, OK

Change the Weather History Date:

Tuesday, January 14, 2014

  Actual Average (KJWG) Record (KJWG)
Temperature  
Mean Temperature 42 °F -  
Max Temperature 51 °F 47 °F 72 °F (1990)
Min Temperature 30 °F 24 °F -1 °F (1979)
Degree Days  
Heating Degree Days 24    
Moisture  
Dew Point 21 °F    
Average Humidity 45    
Maximum Humidity 69    
Minimum Humidity 25    
Precipitation  
Precipitation 0.00 in - - ()
Sea Level Pressure  
Sea Level Pressure 30.16 in    
Wind  
Wind Speed 9 mph (NNW)    
Max Wind Speed 28 mph    
Max Gust Speed 33 mph    
Visibility 10 miles    
Events      
Averages and records for this station are not official NWS values.
T = Trace of Precipitation, MM = Missing Value Source: NWS Daily Summary

Daily Weather History Graph

Daily Weather History Graph

Search for Another Location

Airport:

Trip Planner

Search our weather history database for the weather conditions in past years. The results will help you decide how hot, cold, wet, or windy it might be!

Date:

Astronomy

Jan. 14, 2014 Rise Set
Actual Time 7:43 AM CST 5:44 PM CST
Civil Twilight 7:15 AM CST 6:11 PM CST
Nautical Twilight 6:44 AM CST 6:43 PM CST
Astronomical Twilight 6:13 AM CST 7:13 PM CST
Moon 4:49 PM CST (1/14) 6:20 AM CST (1/14)
Length of Visible Light 10h 56m
Length of Day
10h 00m
Waxing Gibbous, 98% of the Moon is Illuminated
Jan 14
Waxing Gibbous
Jan 15
Full
Jan 23
Last Quarter
Jan 30
New
Feb 6
First Quarter

Hourly Weather History & Observations

Time (CST) Temp. Windchill Dew Point Humidity Pressure Visibility Wind Dir Wind Speed Gust Speed Precip Events Conditions
12:15 AM 37.4 °F 32.1 °F 14.0 °F 38% 29.97 in 10.0 mi SW 6.9 mph - N/A   Clear
12:35 AM 37.4 °F 32.8 °F 14.0 °F 38% 29.97 in 10.0 mi SW 5.8 mph - N/A   Clear
12:55 AM 37.4 °F 31.4 °F 14.0 °F 38% 29.96 in 10.0 mi SW 8.1 mph - N/A   Clear
1:15 AM 41.0 °F 36.4 °F 14.0 °F 33% 29.95 in 10.0 mi SW 6.9 mph - N/A   Clear
1:35 AM 41.0 °F 35.8 °F 14.0 °F 33% 29.95 in 10.0 mi SW 8.1 mph - N/A   Clear
1:55 AM 39.2 °F 34.2 °F 14.0 °F 36% 29.95 in 10.0 mi SW 6.9 mph - N/A   Clear
2:15 AM 37.4 °F - 14.0 °F 38% 29.95 in 10.0 mi Calm Calm - N/A   Clear
2:35 AM 32.0 °F 28.7 °F 15.8 °F 51% 29.95 in 10.0 mi SE 3.5 mph - N/A   Clear
2:55 AM 33.8 °F - 14.0 °F 44% 29.95 in 10.0 mi Calm Calm - N/A   Clear
3:15 AM 33.8 °F - 14.0 °F 44% 29.95 in 10.0 mi Calm Calm - N/A   Clear
3:35 AM 32.0 °F - 17.6 °F 55% 29.95 in 10.0 mi Calm Calm - N/A   Clear
3:55 AM 33.8 °F - 15.8 °F 48% 29.95 in 10.0 mi Calm Calm - N/A   Clear
4:15 AM 41.0 °F 38.0 °F 14.0 °F 33% 29.95 in 10.0 mi West 4.6 mph - N/A   Clear
4:35 AM 33.8 °F 30.8 °F 14.0 °F 44% 29.95 in 10.0 mi NNW 3.5 mph - N/A   Clear
4:55 AM 37.4 °F 34.9 °F 14.0 °F 38% 29.95 in 10.0 mi NW 3.5 mph - N/A   Clear
5:15 AM 33.8 °F 30.8 °F 14.0 °F 44% 29.96 in 10.0 mi WNW 3.5 mph - N/A   Clear
5:35 AM 35.6 °F 28.6 °F 17.6 °F 48% 29.99 in 10.0 mi NNW 9.2 mph - N/A   Scattered Clouds
5:55 AM 33.8 °F 29.6 °F 17.6 °F 52% 29.99 in 10.0 mi NW 4.6 mph - N/A   Scattered Clouds
6:15 AM 33.8 °F - 17.6 °F 52% 29.99 in 10.0 mi Calm Calm - N/A   Clear
6:35 AM 33.8 °F 29.6 °F 17.6 °F 52% 30.00 in 10.0 mi WNW 4.6 mph - N/A   Clear
6:55 AM 37.4 °F 30.8 °F 19.4 °F 48% 30.01 in 10.0 mi WNW 9.2 mph - N/A   Clear
7:15 AM 41.0 °F 34.7 °F 23.0 °F 49% 30.02 in 10.0 mi NW 10.4 mph - N/A   Clear
7:35 AM 42.8 °F 37.5 °F 26.6 °F 53% 30.03 in 10.0 mi NNW 9.2 mph - N/A   Mostly Cloudy
7:55 AM 44.6 °F 39.2 °F 26.6 °F 49% 30.04 in 10.0 mi NNW 10.4 mph - N/A   Overcast
8:15 AM 46.4 °F 41.9 °F 30.2 °F 53% 30.04 in 10.0 mi NNW 9.2 mph - N/A   Overcast
8:35 AM 46.4 °F 41.9 °F 30.2 °F 53% 30.05 in 10.0 mi NNW 9.2 mph - N/A   Mostly Cloudy
8:55 AM 46.4 °F 42.9 °F 32.0 °F 57% 30.07 in 10.0 mi NNW 6.9 mph - N/A   Mostly Cloudy
9:15 AM 46.4 °F 42.9 °F 32.0 °F 57% 30.09 in 10.0 mi NNW 6.9 mph - N/A   Overcast
9:35 AM 48.2 °F - 32.0 °F 54% 30.10 in 10.0 mi NNE 10.4 mph - N/A   Mostly Cloudy
9:55 AM 51.8 °F - 32.0 °F 47% 30.12 in 10.0 mi North 20.7 mph 27.6 mph N/A   Mostly Cloudy
10:15 AM 50.0 °F - 32.0 °F 50% 30.14 in 10.0 mi North 18.4 mph 29.9 mph N/A   Mostly Cloudy
10:35 AM 51.8 °F - 32.0 °F 47% 30.16 in 10.0 mi NNE 23.0 mph 32.2 mph N/A   Scattered Clouds
10:55 AM 50.0 °F - 28.4 °F 43% 30.16 in 10.0 mi North 24.2 mph 33.4 mph N/A   Scattered Clouds
11:15 AM 50.0 °F - 28.4 °F 43% 30.18 in 10.0 mi North 16.1 mph 23.0 mph N/A   Scattered Clouds
11:35 AM 50.0 °F - 28.4 °F 43% 30.19 in 10.0 mi North 24.2 mph 31.1 mph N/A   Mostly Cloudy
11:55 AM 50.0 °F - 28.4 °F 43% 30.19 in 10.0 mi North 27.6 mph - N/A   Scattered Clouds
12:15 PM 51.8 °F - 28.4 °F 41% 30.18 in 10.0 mi North 27.6 mph 33.4 mph N/A   Clear
12:35 PM 50.0 °F - 23.0 °F 35% 30.20 in 10.0 mi North 17.3 mph 31.1 mph N/A   Mostly Cloudy
12:55 PM 50.0 °F - 28.4 °F 43% 30.18 in 10.0 mi North 19.6 mph 23.0 mph N/A   Mostly Cloudy
1:15 PM 50.0 °F - 28.4 °F 43% 30.19 in 10.0 mi NNE 19.6 mph 24.2 mph N/A   Mostly Cloudy
1:35 PM 50.0 °F - 26.6 °F 40% 30.19 in 10.0 mi North 19.6 mph 27.6 mph N/A   Mostly Cloudy
1:55 PM 51.8 °F - 28.4 °F 41% 30.20 in 10.0 mi North 23.0 mph 28.8 mph N/A   Scattered Clouds
2:15 PM 51.8 °F - 28.4 °F 41% 30.21 in 10.0 mi North 24.2 mph 31.1 mph N/A   Clear
2:35 PM 50.0 °F - 23.0 °F 35% 30.21 in 10.0 mi North 17.3 mph 27.6 mph N/A   Clear
2:55 PM 50.0 °F - 19.4 °F 30% 30.23 in 10.0 mi North 21.9 mph 32.2 mph N/A   Clear
3:15 PM 50.0 °F - 19.4 °F 30% 30.24 in 10.0 mi NNE 19.6 mph 26.5 mph N/A   Clear
3:35 PM 48.2 °F - 15.8 °F 27% 30.26 in 10.0 mi North 21.9 mph 33.4 mph N/A   Clear
3:55 PM 48.2 °F - 14.0 °F 25% 30.27 in 10.0 mi North 18.4 mph 33.4 mph N/A   Scattered Clouds
4:15 PM 48.2 °F - 17.6 °F 30% 30.27 in 10.0 mi North 19.6 mph 27.6 mph N/A   Scattered Clouds
4:35 PM 46.4 °F 37.9 °F 14.0 °F 27% 30.28 in 10.0 mi North 25.3 mph 31.1 mph N/A   Scattered Clouds
4:55 PM 44.6 °F 36.6 °F 14.0 °F 29% 30.30 in 10.0 mi North 19.6 mph 24.2 mph N/A   Scattered Clouds
5:15 PM 44.6 °F 37.8 °F 15.8 °F 31% 30.32 in 10.0 mi North 15.0 mph 21.9 mph N/A   Clear
5:35 PM 44.6 °F 38.8 °F 17.6 °F 34% 30.31 in 10.0 mi North 11.5 mph 17.3 mph N/A   Clear
6:15 PM 41.0 °F 36.4 °F 17.6 °F 39% 30.33 in 10.0 mi NNW 6.9 mph - N/A   Clear
6:35 PM 37.4 °F 32.8 °F 17.6 °F 45% 30.33 in 10.0 mi NNW 5.8 mph - N/A   Clear
6:55 PM 37.4 °F 34.9 °F 15.8 °F 41% 30.34 in 10.0 mi NW 3.5 mph - N/A   Clear
7:15 PM 35.6 °F 31.7 °F 15.8 °F 44% 30.34 in 10.0 mi NW 4.6 mph - N/A   Clear
7:35 PM 33.8 °F 28.6 °F 17.6 °F 52% 30.35 in 10.0 mi NW 5.8 mph - N/A   Clear
7:55 PM 35.6 °F 28.6 °F 17.6 °F 48% 30.35 in 10.0 mi NW 9.2 mph - N/A   Clear
8:15 PM 35.6 °F 26.6 °F 17.6 °F 48% 30.36 in 10.0 mi NNW 13.8 mph - N/A   Mostly Cloudy
8:35 PM 37.4 °F 30.3 °F 19.4 °F 48% 30.36 in 10.0 mi NNW 10.4 mph - N/A   Scattered Clouds
8:55 PM 35.6 °F 29.2 °F 19.4 °F 52% 30.36 in 10.0 mi NNW 8.1 mph - N/A   Clear
9:15 PM 33.8 °F 27.7 °F 19.4 °F 56% 30.36 in 10.0 mi NW 6.9 mph - N/A   Clear
9:35 PM 32.0 °F 24.8 °F 19.4 °F 60% 30.36 in 10.0 mi NW 8.1 mph - N/A   Clear
9:55 PM 32.0 °F 25.6 °F 19.4 °F 60% 30.36 in 10.0 mi NW 6.9 mph - N/A   Clear
10:15 PM 32.0 °F 25.6 °F 19.4 °F 60% 30.36 in 10.0 mi NW 6.9 mph - N/A   Clear
10:35 PM 32.0 °F 25.6 °F 21.2 °F 64% 30.34 in 10.0 mi WNW 6.9 mph - N/A   Clear
10:55 PM 33.8 °F 27.0 °F 21.2 °F 60% 30.34 in 10.0 mi NW 8.1 mph - N/A   Clear
11:15 PM 32.0 °F 24.8 °F 21.2 °F 64% 30.34 in 10.0 mi NW 8.1 mph - N/A   Clear
11:35 PM 32.0 °F 26.4 °F 21.2 °F 64% 30.34 in 10.0 mi NW 5.8 mph - N/A   Clear
11:55 PM 30.2 °F 24.3 °F 21.2 °F 69% 30.34 in 10.0 mi NW 5.8 mph - N/A   Clear